Temp
46 42 40 48 46 44 41 40 39 43 50 45 49 50 53 56 55 57 60 61 60 60 65 65 61 60 57 54 54 54 52 53 53 51 49 48 48 49 49 50 50 49 50 48
42 37 46 46 44 44 42 41 41 46 49 43 43 47 54 56 57 59 60 61 60 59 61 60 59 57 56 55 52 53 53 53 52 53 53 54 53 52 51 50 49 49 48 47
42 45 47 45 42 43 39 38 42 41 43 43 40 41 44 50 51 55 57 58 58 57 58 59 57 56 54 52 51 52 52 52 52 53 52 45 47 45 46 46 46 46 46 45
41 45 45 40 41 43 40 45 44 41 37 34 41 34 45 56 56 55 54 54 53 55 55 56 55 54 53 53 51 50 51 51 51 52 50 49 51 48 49 50 47 46 45 45
43 41 39 39 43 43 42 43 40 38 35 33 34 32 39 43 46 51 56 55 55 56 54 54 55 54 53 51 49 48 48 49 50 50 51 48 49 51 47 50 45 45 43 44
41 44 44 45 43 44 43 39 38 33 33 27 35 36 36 42 47 49 54 55 54 53 52 53 53 52 51 48 46 45 46 46 47 48 49 47 49 46 44 43 43 42 42 42
38 39 42 44 40 41 42 37 30 27 24 29 35 32 41 48 49 51 53 54 51 50 51 51 53 51 50 48 46 44 43 44 45 45 46 46 47 47 45 44 44 41 41 41
33 36 40 43 45 42 38 40 32 24 22 34 31 31 41 48 51 49 51 51 49 50 49 49 47 46 46 45 44 44 41 42 43 43 44 44 45 46 45 44 45 43 43 43
35 33 40 41 41 44 37 37 42 33 24 22 35 41 46 45 48 48 46 47 42 42 42 42 43 43 43 43 42 42 41 41 42 42 42 42 42 43 43 42 42 43 44 43
41 33 40 40 39 39 42 43 34 32 23 22 33 32 37 44 48 42 35 36 38 39 39 40 41 41 42 43 43 43 43 41 41 41 41 41 41 42 42 39 39 40 42 42
42 37 38 38 35 38 36 36 37 37 33 26 25 34 46 40 32 32 34 36 36 37 38 39 40 41 42 42 42 42 41 41 41 41 40 40 40 40 40 39 39 40 40 39
43 38 32 36 42 42 42 39 40 34 32 34 35 36 53 34 35 34 34 36 36 37 38 39 40 40 40 40 41 41 40 40 40 40 39 39 39 38 38 38 39 39 38 38
41 34 29 30 34 34 35 36 39 39 37 30 27 31 45 41 34 33 32 34 36 37 38 39 39 39 39 38 38 39 39 39 39 38 38 38 39 38 37 38 39 38 38 37
42 34 32 28 34 35 31 33 35 33 26 28 28 30 38 43 33 32 33 34 35 37 38 38 38 38 38 39 38 38 38 38 37 37 36 37 37 37 38 38 38 37 38 38
36 30 33 35 34 31 29 28 29 27 30 25 29 29 36 31 28 31 34 34 34 34 35 36 36 37 37 37 37 37 37 36 36 35 35 35 36 36 36 36 37 37 36 37
32 25 26 19 30 31 27 29 29 30 31 32 32 31 29 30 31 30 31 33 32 33 33 33 34 34 34 34 33 34 35 34 34 33 33 34 34 34 34 35 35 35 35 34
26 24 19 19 27 22 18 24 30 29 26 26 24 24 21 22 28 29 29 29 30 30 31 30 31 31 31 31 31 31 31 31 31 31 32 33 32 31 32 33 33 33 33 34
28 24 12 12 6 -2 24 25 26 26 25 21 17 18 22 25 28 29 30 29 31 32 31 31 30 29 30 30 29 30 29 29 29 28 29 31 31 30 31 30 30 32 32 32
29 24 4 2 -2 15 24 22 21 19 18 21 19 22 26 28 26 25 30 32 31 30 31 31 31 29 28 28 28 27 27 27 27 27 28 29 28 26 27 28 29 30 30 30
26 26 16 -7 -1 -4 17 20 25 24 8 14 15 19 20 24 13 23 30 32 30 30 30 29 30 28 29 28 26 26 26 25 25 27 27 27 25 23 24 27 29 29 29 28
2 4 13 13 9 10 22 25 27 6 12 20 18 23 23 21 25 30 30 29 29 28 28 29 27 26 27 27 25 24 24 23 25 25 24 23 23 22 24 26 25 27 27 28
12 1 -5 -8 -6 1 20 22 16 22 28 25 24 27 25 28 30 30 30 28 27 26 27 27 24 25 26 25 23 22 21 24 23 21 20 19 18 19 20 19 21 25 26 25
10 15 9 12 10 23 22 25 32 32 28 29 28 29 28 28 29 28 25 25 26 25 25 25 22 22 23 24 22 18 21 21 19 16 14 14 15 15 16 16 18 21 26 24
22 25 19 21 26 26 30 33 33 32 30 31 30 27 25 24 24 23 23 23 23 23 22 22 20 19 19 20 20 18 18 17 13 10 11 11 11 11 13 15 17 18 22 24
24 21 18 21 26 28 30 31 32 33 31 26 24 24 23 22 20 22 20 19 20 20 19 18 17 16 15 16 15 14 13 11 8 8 8 8 8 8 10 13 14 16 21 25
27 24 20 18 29 28 29 32 28 27 23 21 20 19 21 20 18 18 16 17 16 14 14 12 11 10 9 9 8 8 8 7 4 3 4 5 5 6 8 8 10 18 22 25
MSLP
1017.51 1018.14 1017.95 1017.22 1017.01 1017.14 1017.35 1017.28 1016.98 1016.28 1015.36 1015.16 1014.11 1013.04 1012.46 1011.64 1010.84 1009.36 1008.59 1008.43 1008.15 1008.28 1007.46 1007.68 1008.36 1008.05 1008.09 1008.35 1008.71 1008.84 1009.41 1009.96 1011.16 1011.98 1012.77 1013.55 1013.47 1014.14 1014.53 1014.63 1015.19 1016.14 1017.03 1017.81
1018.31 1017.92 1017.17 1017.20 1017.35 1017.75 1017.61 1017.39 1016.89 1015.66 1014.92 1015.23 1013.95 1012.19 1011.26 1010.49 1008.81 1008.30 1007.83 1007.47 1008.01 1007.78 1007.52 1008.12 1007.69 1007.74 1007.79 1007.88 1008.15 1008.55 1008.81 1009.35 1009.61 1010.11 1010.66 1011.59 1012.31 1013.20 1013.80 1014.54 1015.08 1015.43 1015.98 1016.88
1017.15 1016.63 1016.48 1017.02 1017.43 1017.75 1017.24 1017.43 1016.26 1016.05 1015.63 1014.86 1014.17 1011.68 1010.32 1009.12 1008.61 1007.65 1006.73 1007.61 1007.62 1008.02 1007.89 1007.97 1008.06 1007.95 1007.82 1007.80 1007.94 1008.35 1008.56 1008.73 1009.01 1009.63 1010.68 1011.35 1011.85 1012.75 1013.35 1013.90 1014.31 1014.73 1015.37 1016.20
1016.85 1016.07 1016.37 1016.94 1017.02 1016.87 1017.09 1016.03 1016.26 1016.33 1016.77 1016.03 1014.56 1012.18 1010.17 1008.91 1008.07 1007.26 1007.11 1007.12 1007.73 1008.30 1008.23 1008.33 1008.08 1007.84 1008.01 1007.69 1007.91 1007.80 1007.79 1008.54 1009.14 1009.45 1009.68 1010.05 1010.10 1010.55 1010.64 1011.23 1012.80 1014.03 1014.63 1015.26
1015.98 1015.96 1016.07 1016.36 1015.69 1016.11 1015.95 1015.63 1016.23 1016.57 1016.89 1016.60 1015.27 1013.89 1009.96 1008.45 1007.73 1007.71 1007.31 1007.63 1007.91 1008.28 1008.91 1008.94 1008.43 1008.27 1008.17 1008.08 1008.04 1008.01 1008.16 1008.28 1008.77 1009.54 1009.82 1009.86 1010.13 1010.66 1011.15 1011.84 1012.63 1012.78 1013.68 1014.62
1016.40 1016.02 1015.59 1014.86 1015.02 1015.20 1015.64 1015.98 1016.58 1017.16 1017.21 1016.27 1014.39 1013.23 1010.56 1008.58 1007.31 1007.34 1007.02 1007.64 1008.31 1009.21 1008.95 1008.82 1008.79 1008.91 1008.97 1008.99 1008.82 1008.63 1008.51 1008.81 1009.02 1009.23 1009.98 1010.40 1010.49 1010.38 1010.62 1011.06 1011.93 1012.89 1013.34 1013.67
1016.68 1015.89 1015.21 1014.90 1015.33 1015.37 1015.73 1016.53 1017.39 1017.37 1017.30 1015.20 1013.70 1013.11 1010.07 1008.62 1007.93 1008.01 1008.18 1008.42 1009.36 1009.63 1009.62 1009.77 1009.60 1009.48 1009.56 1009.59 1009.44 1009.70 1009.27 1009.53 1009.93 1009.81 1009.82 1010.13 1010.29 1010.53 1010.83 1011.00 1011.07 1011.81 1012.70 1013.29
1017.34 1015.63 1015.20 1014.75 1014.54 1014.52 1015.27 1015.69 1016.62 1016.64 1016.56 1014.72 1013.86 1011.44 1009.33 1008.26 1008.58 1009.00 1009.30 1009.85 1010.30 1011.55 1011.83 1011.83 1011.83 1011.71 1011.53 1011.24 1010.87 1010.79 1010.59 1010.91 1010.79 1010.51 1010.53 1010.07 1010.49 1011.01 1010.99 1011.18 1011.16 1011.42 1011.66 1011.96
1016.60 1015.08 1014.56 1014.64 1014.03 1014.43 1015.31 1015.30 1014.69 1015.39 1016.51 1015.36 1012.69 1010.18 1009.41 1008.85 1009.84 1009.96 1011.56 1012.04 1012.90 1013.57 1013.63 1013.74 1013.34 1013.16 1012.98 1012.60 1012.16 1011.83 1011.72 1011.84 1011.89 1011.65 1010.46 1010.38 1010.71 1010.65 1010.95 1011.22 1011.23 1011.16 1011.09 1011.01
1016.58 1015.75 1014.71 1014.66 1014.81 1014.33 1014.44 1014.57 1015.03 1015.45 1015.66 1014.65 1011.93 1010.98 1010.39 1010.72 1010.79 1012.15 1013.27 1014.38 1014.82 1014.99 1015.00 1014.99 1014.87 1014.64 1014.29 1013.79 1013.51 1013.35 1012.73 1012.41 1012.22 1011.47 1011.23 1010.95 1010.40 1010.31 1010.32 1010.52 1010.58 1010.49 1010.47 1010.98
1016.32 1016.53 1015.03 1015.16 1014.90 1014.59 1014.78 1014.60 1014.73 1015.02 1014.85 1013.81 1012.42 1009.90 1009.76 1012.66 1014.28 1015.07 1015.79 1016.08 1016.33 1016.41 1016.21 1015.97 1015.94 1015.49 1015.15 1015.04 1014.33 1013.36 1013.01 1012.59 1011.81 1011.51 1011.21 1011.10 1010.83 1010.44 1010.25 1010.11 1009.86 1009.78 1010.01 1010.00
1015.52 1015.64 1015.66 1014.36 1013.82 1013.60 1013.76 1013.70 1013.97 1013.87 1013.33 1012.70 1011.61 1009.82 1009.71 1013.00 1014.72 1016.10 1016.89 1017.23 1016.91 1017.12 1017.37 1016.68 1015.90 1015.86 1015.55 1015.15 1014.97 1014.38 1013.52 1013.15 1012.74 1012.07 1011.57 1011.02 1010.75 1010.54 1010.49 1010.10 1009.53 1009.46 1009.31 1009.44
1015.87 1015.43 1015.10 1014.47 1014.30 1014.35 1014.16 1014.12 1013.95 1013.91 1013.34 1012.67 1012.27 1011.03 1011.47 1013.13 1014.95 1016.22 1016.52 1017.67 1017.38 1017.11 1017.54 1016.92 1016.22 1015.78 1015.67 1015.47 1015.56 1015.17 1014.47 1013.63 1013.07 1012.52 1011.72 1010.97 1010.52 1010.42 1010.47 1010.13 1009.50 1009.19 1008.89 1008.86
1016.92 1015.69 1016.03 1015.51 1014.70 1015.29 1015.56 1015.51 1015.10 1015.13 1014.54 1013.64 1013.36 1013.23 1013.64 1013.89 1015.25 1016.67 1016.95 1017.21 1017.41 1017.16 1017.08 1016.83 1016.34 1015.85 1015.66 1015.52 1015.55 1015.30 1014.86 1014.64 1013.83 1012.80 1012.07 1011.27 1010.84 1010.76 1010.19 1009.73 1009.35 1008.99 1008.49 1008.36
1018.13 1017.20 1016.97 1016.30 1016.25 1016.77 1016.81 1016.70 1016.14 1015.79 1015.35 1015.35 1014.30 1014.49 1014.88 1016.04 1016.87 1017.08 1017.03 1017.07 1017.33 1017.29 1016.89 1017.28 1016.85 1016.13 1015.95 1015.85 1015.59 1015.14 1014.85 1014.75 1014.44 1013.41 1012.73 1012.04 1010.96 1010.60 1010.25 1009.82 1009.19 1008.64 1008.20 1007.85
1019.52 1018.91 1018.76 1018.20 1017.73 1017.74 1017.32 1016.83 1016.04 1015.64 1015.54 1015.12 1015.28 1015.25 1016.46 1017.32 1017.68 1017.71 1017.19 1017.38 1017.27 1017.34 1017.14 1017.60 1016.98 1016.23 1016.40 1016.47 1016.39 1015.89 1015.26 1014.64 1014.25 1013.38 1012.91 1012.37 1011.35 1010.31 1010.00 1009.76 1008.97 1008.03 1007.52 1007.47
1020.93 1020.74 1020.70 1019.69 1019.31 1019.31 1018.17 1016.12 1015.63 1015.45 1015.87 1016.29 1016.67 1017.31 1017.83 1018.17 1018.49 1018.06 1017.30 1017.41 1017.27 1017.23 1017.41 1017.27 1016.70 1016.75 1016.62 1016.64 1016.69 1016.06 1015.36 1014.79 1014.04 1013.43 1012.96 1012.38 1011.60 1010.75 1010.07 1009.65 1008.68 1007.70 1007.19 1006.73
1020.65 1021.16 1021.91 1021.67 1021.67 1020.24 1017.19 1016.41 1015.98 1016.43 1017.12 1017.91 1018.43 1018.69 1018.59 1018.40 1018.24 1017.82 1017.43 1017.24 1017.00 1016.89 1016.88 1016.83 1016.77 1016.79 1016.81 1016.57 1016.17 1015.73 1015.39 1014.87 1014.42 1014.00 1013.21 1012.31 1011.70 1011.06 1010.42 1009.95 1009.24 1008.12 1007.35 1006.80
1020.62 1021.58 1022.99 1023.68 1023.08 1019.74 1018.12 1017.58 1017.50 1017.55 1018.19 1018.48 1018.81 1018.80 1018.42 1018.15 1018.06 1017.27 1016.95 1016.74 1016.69 1016.68 1016.62 1016.60 1016.50 1016.33 1016.14 1015.99 1015.76 1015.53 1015.12 1014.82 1014.33 1013.56 1013.10 1012.70 1012.18 1011.27 1010.30 1009.39 1008.81 1007.90 1007.32 1006.56
1020.92 1021.65 1023.01 1024.18 1023.53 1021.19 1018.89 1017.94 1017.60 1018.24 1018.60 1018.58 1018.51 1018.62 1018.39 1018.27 1018.41 1016.94 1016.58 1016.39 1016.41 1016.36 1016.27 1016.15 1016.01 1015.91 1015.54 1015.18 1015.22 1015.07 1014.55 1014.09 1013.57 1013.13 1012.67 1012.24 1011.97 1011.21 1010.34 1009.27 1008.17 1007.28 1006.67 1005.77
1022.58 1022.73 1022.90 1023.03 1022.51 1020.50 1018.47 1017.83 1017.69 1018.36 1018.47 1017.75 1018.03 1017.76 1017.65 1017.92 1017.13 1016.02 1015.97 1016.02 1016.06 1016.01 1015.94 1015.85 1015.63 1015.34 1014.96 1014.81 1014.72 1014.27 1013.90 1013.52 1013.19 1012.92 1012.48 1011.97 1011.37 1010.70 1009.89 1009.04 1008.32 1007.09 1006.26 1005.58
1021.99 1022.32 1023.25 1023.09 1022.26 1020.38 1017.74 1017.73 1017.60 1016.79 1016.52 1016.79 1016.97 1016.68 1016.66 1016.21 1015.82 1015.66 1015.46 1015.71 1015.97 1015.90 1015.61 1015.58 1015.54 1015.01 1014.32 1014.27 1014.11 1013.48 1013.01 1012.83 1012.66 1012.41 1011.99 1011.54 1011.05 1010.46 1009.78 1009.02 1007.80 1006.85 1005.62 1004.95
1020.98 1020.33 1020.71 1020.56 1018.59 1017.55 1017.03 1016.35 1015.73 1015.75 1015.98 1015.73 1015.92 1015.67 1015.66 1015.71 1015.42 1015.38 1015.61 1015.81 1015.82 1015.98 1015.81 1015.62 1015.37 1014.78 1014.08 1013.99 1013.87 1013.18 1012.25 1012.46 1012.22 1011.93 1011.47 1011.03 1010.56 1010.05 1009.37 1008.40 1006.95 1005.91 1004.57 1003.61
1018.77 1018.52 1018.51 1017.95 1016.73 1016.43 1015.63 1015.03 1014.82 1014.84 1014.99 1014.90 1015.08 1015.12 1015.25 1015.51 1015.56 1015.92 1016.06 1016.07 1015.98 1015.81 1015.81 1015.75 1015.40 1014.78 1013.90 1013.61 1013.43 1013.19 1012.62 1012.44 1012.05 1011.40 1010.67 1010.14 1009.53 1008.70 1008.04 1007.13 1005.97 1004.72 1003.26 1002.24
1016.83 1017.02 1016.44 1015.66 1015.37 1015.21 1014.49 1014.24 1014.07 1014.28 1014.54 1014.98 1015.42 1015.75 1016.05 1016.31 1016.49 1016.74 1016.50 1016.51 1016.28 1016.04 1016.01 1016.05 1015.79 1015.19 1014.15 1013.81 1013.26 1013.16 1012.79 1012.55 1011.70 1010.92 1010.06 1009.37 1008.72 1007.84 1006.77 1005.76 1004.73 1003.63 1002.27 1001.34
1015.17 1014.79 1015.20 1014.03 1013.83 1014.03 1013.53 1013.64 1014.28 1014.73 1015.37 1015.99 1016.36 1016.57 1016.82 1017.10 1017.26 1017.37 1017.08 1017.15 1017.03 1016.69 1016.59 1016.37 1016.07 1015.70 1014.81 1014.26 1013.47 1013.17 1012.97 1012.59 1011.64 1010.35 1009.45 1008.76 1008.01 1007.10 1006.16 1005.00 1003.44 1002.69 1001.37 1000.05
Wind_Speed
1 4 9 19 15 2 2 6 7 7 8 5 19 18 18 17 16 23 23 19 17 14 19 13 6 9 8 8 11 15 14 16 12 12 11 9 13 12 11 12 15 15 13 14
3 7 14 1 3 7 8 12 14 11 13 5 11 20 21 24 25 24 21 21 12 7 11 6 7 6 7 7 10 10 14 15 16 13 12 7 10 10 10 9 10 13 14 15
10 7 5 8 4 7 5 7 12 12 7 5 8 8 4 6 7 11 18 13 12 9 11 10 9 7 7 8 8 10 11 14 15 15 9 3 4 3 8 9 9 12 15 14
7 5 7 3 6 10 9 10 13 6 4 5 3 11 3 18 18 10 12 7 5 8 4 6 7 5 6 8 6 7 9 11 11 14 13 17 14 12 9 12 10 10 14 15
9 7 5 5 10 8 11 1 3 2 3 3 3 5 8 1 5 5 7 8 6 6 3 8 10 8 7 7 6 5 5 6 9 11 12 11 13 6 2 6 11 13 13 14
7 5 6 9 4 7 2 1 3 4 1 5 13 10 5 3 4 1 5 6 9 5 7 8 6 7 9 7 8 6 2 2 4 8 10 11 12 7 6 8 10 9 8 10
4 5 4 3 1 2 3 5 5 5 2 8 4 3 6 7 6 4 6 8 5 5 11 12 17 18 20 19 17 10 8 5 2 4 7 8 11 9 9 9 9 11 9 9
4 11 7 4 8 8 7 10 7 7 4 14 2 9 6 9 5 4 7 8 6 15 12 16 19 18 18 19 18 15 12 8 6 4 5 3 5 5 5 8 7 8 9 11
6 10 3 5 3 2 3 5 2 1 2 1 7 12 8 6 7 5 12 18 20 20 19 19 17 17 17 18 18 18 16 12 8 8 4 4 4 5 6 5 6 7 9 10
5 8 3 3 1 2 7 3 1 2 2 7 13 7 7 9 11 18 20 18 16 14 15 15 15 16 15 14 13 14 13 12 12 11 7 6 5 6 7 6 10 11 10 10
9 6 8 3 5 8 2 3 3 3 6 5 6 12 8 11 11 8 8 10 11 13 14 13 13 13 15 14 14 14 15 15 16 14 13 11 11 8 7 8 11 12 10 12
9 5 7 14 12 8 8 8 7 12 16 12 19 21 12 14 12 8 8 8 7 7 9 9 10 11 13 14 15 16 16 13 13 13 13 12 11 10 9 10 11 9 11 11
2 5 4 6 3 3 4 1 6 9 10 19 14 7 7 5 10 9 7 7 7 7 9 8 8 9 10 11 12 13 16 15 15 14 13 13 14 12 11 13 12 10 11 11
2 3 12 15 10 6 5 7 7 4 4 5 9 13 17 22 14 10 6 5 6 6 10 10 10 11 11 10 10 10 11 12 15 16 15 13 12 14 13 13 12 11 13 14
3 11 13 17 8 5 6 10 14 16 17 15 21 22 24 6 9 8 5 4 6 9 10 10 11 11 12 13 14 14 12 12 12 12 13 15 13 12 12 13 12 12 10 13
4 3 4 5 7 7 12 18 19 18 21 22 22 26 7 1 5 6 8 5 6 3 7 9 10 11 11 11 11 11 13 13 13 13 13 13 11 14 15 15 13 12 10 10
2 2 1 9 11 8 13 18 18 10 1 2 9 2 1 3 6 6 7 7 7 6 6 6 7 6 8 10 10 10 11 12 13 13 13 12 11 12 14 17 16 14 11 10
12 12 4 9 5 5 6 4 3 4 3 4 3 5 7 7 5 7 8 8 8 9 9 8 7 6 8 9 9 9 9 9 10 11 12 13 13 15 15 14 15 15 12 10
16 8 2 3 7 9 11 4 5 4 6 8 7 5 5 4 5 7 10 8 8 8 9 9 9 9 9 9 7 7 10 9 10 11 11 12 13 17 17 17 15 13 13 12
7 11 6 3 5 8 6 4 2 4 6 7 6 7 6 3 2 10 7 7 8 8 8 9 10 8 10 9 5 9 12 11 12 12 13 12 13 14 16 17 16 12 13 14
3 2 12 11 7 7 6 5 4 7 7 4 7 10 9 8 12 14 5 7 6 7 9 9 9 12 13 10 9 13 12 13 12 11 12 15 14 15 15 15 16 17 14 13
6 5 4 3 2 9 5 2 6 7 7 5 5 11 10 12 14 15 12 6 5 9 12 11 10 14 15 13 11 15 16 14 12 11 14 15 15 14 13 16 15 17 14 14
5 8 6 11 9 5 6 7 14 12 10 15 8 11 9 11 14 9 5 7 9 10 10 10 11 15 17 14 11 15 18 14 15 14 16 16 17 16 15 15 16 14 14 11
7 6 10 13 12 16 18 18 14 11 12 13 9 9 5 8 5 5 8 10 11 12 12 11 12 16 19 16 15 15 16 15 15 17 20 18 17 17 16 13 12 12 12 12
10 4 7 15 14 15 18 16 16 15 10 3 3 2 3 4 5 6 10 11 13 13 13 12 14 16 21 20 20 17 17 15 17 19 19 18 15 16 15 14 12 12 14 15
11 19 12 16 17 14 17 12 1 1 1 4 4 2 3 5 9 10 12 11 12 14 14 15 16 18 20 20 21 19 18 17 19 20 16 14 13 13 13 13 15 23 30 32
Wind_Direction
40 127 196 219 208 98 170 227 248 258 256 299 277 274 275 272 274 271 268 271 264 262 273 278 273 253 242 224 209 205 195 197 182 188 184 199 208 207 204 201 195 189 192 188
52 231 229 28 155 232 254 269 272 275 261 193 264 281 277 261 258 265 275 279 280 271 284 334 289 263 247 247 224 211 206 195 193 193 195 202 196 215 211 205 202 194 186 184
193 219 174 191 189 255 226 227 253 257 321 247 314 271 229 269 272 262 259 266 272 273 297 312 314 307 287 268 231 225 216 203 197 196 183 121 118 149 187 198 194 194 187 184
231 251 188 147 211 204 268 235 257 276 356 249 37 291 126 285 271 292 291 267 311 297 323 303 299 321 290 286 292 236 201 206 204 192 190 200 204 199 210 199 193 194 193 188
247 178 163 181 218 145 230 249 243 208 214 336 280 269 275 225 271 282 290 16 33 33 346 322 340 325 315 329 317 275 235 205 190 205 210 202 214 214 146 187 187 186 183 190
261 324 177 209 186 179 121 71 49 51 89 272 211 194 305 205 192 121 348 49 37 34 20 351 312 312 345 353 356 347 332 239 180 182 207 211 219 201 174 172 181 194 191 187
307 238 268 158 145 75 122 73 323 317 0 243 358 260 257 287 255 4 358 323 34 3 13 347 8 7 7 7 6 3 11 352 258 214 210 215 221 214 211 193 188 179 187 196
286 298 189 180 203 190 179 168 173 228 243 292 118 247 255 230 356 102 11 31 13 15 10 13 18 16 13 12 13 6 7 343 320 277 267 237 225 244 228 210 203 201 201 203
205 253 243 220 156 162 165 190 198 128 118 296 245 278 319 349 96 86 36 29 24 26 25 20 18 20 16 15 15 14 8 354 334 302 266 246 252 233 229 223 216 209 205 200
333 290 244 299 63 271 179 179 85 22 222 231 271 272 223 319 346 31 28 17 9 19 23 19 13 11 10 13 9 10 20 21 360 351 323 294 261 237 231 203 211 210 208 201
169 222 263 360 205 200 150 226 223 336 165 240 252 262 131 88 72 53 30 31 23 18 14 12 12 7 2 2 3 9 10 7 9 4 354 333 299 268 245 228 224 218 210 198
193 189 230 242 240 211 190 212 220 242 259 229 240 246 314 85 84 75 49 33 28 26 9 6 8 4 6 2 357 357 358 1 0 355 350 349 336 302 270 252 241 223 216 204
84 245 265 283 253 12 190 278 252 277 282 249 254 246 11 136 115 58 61 28 19 20 355 354 6 10 3 1 358 351 348 350 348 348 349 350 353 346 308 277 263 243 230 217
326 223 248 257 266 356 259 276 305 253 252 311 284 309 312 307 349 25 52 38 5 359 353 351 356 355 356 354 350 347 345 344 340 340 342 347 349 340 335 314 278 246 231 230
295 261 267 264 273 311 283 270 269 259 264 265 288 282 276 304 324 346 337 344 332 337 358 341 338 345 346 345 343 344 342 339 331 331 334 333 332 338 334 328 311 282 243 234
6 299 347 272 280 272 287 282 267 270 271 268 265 265 90 216 298 304 322 302 305 324 332 319 325 336 337 336 331 329 332 334 333 331 326 320 325 334 333 328 323 307 280 252
264 254 272 268 302 328 283 255 263 248 208 271 261 259 209 258 255 269 306 298 288 286 275 276 299 303 310 311 311 314 322 321 326 327 323 318 320 326 328 323 323 320 299 267
241 240 164 265 42 263 274 356 107 193 154 145 126 208 213 221 243 264 276 260 281 296 299 296 277 265 276 285 297 300 313 314 317 314 312 320 325 323 318 312 311 311 303 275
222 238 266 192 209 303 303 205 175 163 239 196 182 230 248 255 341 280 250 231 258 273 281 280 276 266 267 269 273 276 294 295 302 307 311 314 319 317 316 310 306 307 300 285
208 219 182 85 193 217 239 244 115 107 285 220 181 228 246 125 247 266 223 244 259 264 275 285 289 273 281 282 263 282 289 293 299 303 306 308 309 303 304 301 302 300 298 286
25 15 217 228 251 290 241 210 139 88 265 223 192 236 225 203 230 258 214 234 239 256 281 293 295 296 293 300 299 293 292 287 292 295 301 304 302 300 296 300 300 296 287 283
184 173 204 70 49 278 187 53 156 216 275 262 233 247 241 244 258 253 262 280 281 293 299 299 294 294 296 299 296 291 288 297 297 295 295 297 298 295 292 288 285 283 272 267
268 188 193 193 211 218 220 223 269 279 274 279 260 263 242 260 263 255 255 283 294 284 285 293 284 287 290 292 288 288 292 303 300 293 290 289 288 284 281 280 282 281 274 259
250 192 238 267 251 251 260 265 268 264 259 268 261 255 249 246 281 315 301 294 296 294 295 297 295 292 291 295 294 291 299 305 300 293 291 291 287 286 281 277 274 272 272 264
235 185 241 256 257 263 263 257 257 270 272 307 29 353 356 341 308 293 293 298 297 300 307 307 300 297 294 301 299 302 302 303 294 291 290 290 286 283 282 273 273 271 270 269
232 248 247 256 256 250 266 273 53 193 42 45 35 346 353 334 313 314 302 306 306 307 314 308 303 299 299 300 297 300 301 298 291 288 289 286 286 284 281 281 283 271 274 273